Regional Weather Roundup
Issued by NWS

Home | Current Version | Previous Version | Text Only | Print | Product List | Glossary Off
Versions: 1 2 3 4 5 6 7 8 9 10 11 12 13 14 15 16 17 18 19 20 21 22 23 24 25 26 27 28 29 30 31 32 33 34 35 36 37 38 39 40 41 42 43 44 45 46 47 48 49 50

056
ASUS43 KLOT 220503
RWRIL

ILLINOIS REGIONAL WEATHER ROUNDUP
NATIONAL WEATHER SERVICE CHICAGO/ROMEOVILLE IL
1100 PM CST SAT JAN 21 2017

NOTE: "FAIR" INDICATES FEW OR NO CLOUDS BELOW 12,000 FEET WITH NO
SIGNIFICANT WEATHER AND/OR OBSTRUCTIONS TO VISIBILITY.

* THESE STATIONS ARE NOT UNDER NWS QUALITY CONTROL. THEY ALSO MAY NOT
  REPORT WEATHER SUCH AS PRECIPITATION OR FOG.

ILZ001-002-007-009-015-016-024-220600-
NORTHWEST ILLINOIS

CITY           SKY/WX    TMP DP  RH WIND       PRES   REMARKS
MOLINE         CLOUDY    44  38  79 NW3       29.59S
STERLING*      FOG       37  37 100 CALM      29.60S VSB 1
SAVANNA*       CLOUDY    39  39  99 S6        29.59S FOG     WCI  35
$$

ILZ003-004-008-010-011-017-018-220600-
NORTH CENTRAL ILLINOIS

CITY           SKY/WX    TMP DP  RH WIND       PRES   REMARKS
ROCKFORD       DRZL/FOG  42  40  92 SW3       29.61R VSB 1
FREEPORT*      FOG       38  37  99 S3        29.60S VSB 3/4
ROCHELLE*      FOG       39  39 100 CALM      29.60F VSB 1/4
DE KALB*       FOG       41  41  99 CALM      29.60S VSB 1/2
$$

ILZ005-006-012>014-019>023-220600-
NORTHEAST ILLINOIS

CITY           SKY/WX    TMP DP  RH WIND       PRES   REMARKS
CHICAGO-OHARE  FOG       41  41 100 NW9       29.60R VSB 1/8
CHICAGO-MIDWAY MOCLDY    43  40  89 CALM      29.59S
AURORA         FOG       41  40  96 CALM      29.60S VSB 1/4
LANSING*       FOG       34  34 100 CALM      29.60S VSB 1/4
JOLIET*        FOG       39  39 100 N5        29.61R VSB<1/4
WAUKEGAN       CLOUDY    42  41  96 W6        29.59R FOG
DUPAGE AIRPORT FOG       42  40  92 NW5       29.60R VSB 1/4
WHEELING       FOG       42  41  96 NW5       29.61R VSB 3/4
MORRIS*        FOG       37  37  97 CALM      29.60S VSB 1/4
ROMEOVILLE*    DRZL/FOG  37  37 100 NW6       29.60R VSB 1/4 WCI  33
NORTHERLY ISL    N/A     48  42  80 SW2         N/A
$$

LMZ740>746-220600-
SOUTHERN LAKE MICHIGAN

STATION/POSITION SKY/WX   TEMP    WIND        PRES    VSBY  WAVE
                          AIR SEA DIR/SP/G                  HT/PER
                          (F)     (DEG/KT/KT) (MB)    (MI)  (FT/S)
HARRISON CRIB              51     300/  3/  3   N/A
BURNHAM HARBOR             46     260/  2/  5   N/A
CALUMET HARBOR             44     240/  2/  2 1001.8S
BURNS HARBOR               48     200/  3/  4 1003.0S
MICHIGAN CITY              49     200/  3/  4   N/A
$$

ILZ025>027-034>036-040-047-049-050-058-095>099-220600-
WEST-CENTRAL ILLINOIS

CITY           SKY/WX    TMP DP  RH WIND       PRES   REMARKS
QUINCY         CLOUDY    43  42  97 NE3       29.58R FOG
GALESBURG*     FOG       35  35 100 N3        29.59R VSB 1/4
MACOMB*          N/A     37  37 100 NE3       29.61R FOG
JACKSONVILLE*  CLOUDY    46  41  84 N6        29.57F
PITTSFIELD*    CLOUDY    48  44  85 NE5       29.59S
$$

ILZ028>032-037-038-041>044-048-051>054-059>061-220600-
CENTRAL ILLINOIS

CITY           SKY/WX    TMP DP  RH WIND       PRES   REMARKS
BLOOMINGTON    CLOUDY    46  42  86 N7        29.60
DECATUR        CLOUDY    48  47  96 NE8       29.58F
PEORIA         PTCLDY    40  40 100 N3        29.59F FOG
LACON*         FOG       40  40 100 N3        29.60R VSB 1/4
LINCOLN*       CLOUDY    45  43  95 CALM      29.59S
SPRINGFIELD    CLOUDY    50  43  77 NE5       29.58S
TAYLORVILLE    CLOUDY    51  45  79 NE6       29.57S
$$

ILZ033-039-045-046-055>057-062-063-220600-
EAST-CENTRAL ILLINOIS

CITY           SKY/WX    TMP DP  RH WIND       PRES   REMARKS
CHAMPAIGN      CLOUDY    49  45  86 N5        29.59S
MATTOON        CLOUDY    52  49  89 NW7       29.58R
PARIS*         PTCLDY    49  49  99 SE3       29.60S
$$

ILZ079-100>102-220600-
SOUTHWEST ILLINOIS

CITY           SKY/WX    TMP DP  RH WIND       PRES   REMARKS
ALTON          CLOUDY    52  42  70 CALM      29.57S
CAHOKIA*       CLOUDY    54  49  83 SE5       29.55F
SPARTA*        CLOUDY    56  53  89 SE5       29.56F
$$

ILZ064>066-069>071-074>076-080>082-084>086-088>090-092>094-220600-
SOUTH-CENTRAL ILLINOIS

CITY           SKY/WX    TMP DP  RH WIND       PRES   REMARKS
CARBONDALE     CLOUDY    52  51  97 CALM      29.54F
CAIRO*         PTCLDY    50  50  99 CALM      29.54F
EFFINGHAM*     CLOUDY    50  50 100 CALM      29.59S
MARION         MOCLDY    52  48  87 CALM      29.56F
MT. VERNON     CLOUDY    51  49  92 CALM      29.57S
CENTRALIA*     CLOUDY    56  53  88 CALM      29.56S
SALEM*         MOCLDY    57  51  81 CALM      29.57S
$$

ILZ067-068-072-073-078-083-087-091-220600-
SOUTHEAST ILLINOIS

CITY           SKY/WX    TMP DP  RH WIND       PRES   REMARKS
LAWRENCEVILLE  PTCLDY    49  47  93 CALM      29.59F
FLORA*         PTCLDY    54  51  89 SE7       29.58S
FAIRFIELD*     PTCLDY    56  50  79 CALM      29.57R
HARRISBURG*    CLOUDY    55  51  86 E5        29.57F
ROBINSON*      CLOUDY    49  48  94 CALM      29.60S
CARMI*         CLOUDY    51  48  91 CALM      29.57F
$$

ABBREVIATIONS USED IN REMARKS
   TC - TEMPERATURE IN CELSIUS
  WCI - WIND CHILL INDEX
   HX - HEAT INDEX
  VSB - VISIBILITY
$$





USA.gov is the U.S. government's official web portal to all federal, state and local government web resources and services.